Location: Foligno
(42.9600°N, 12.7050°E)
Time: 06:25:26
(UTC+01:00)

ISS - Pass Details

Date: 18 January 2021
Orbit: 418 x 421 km, 51.6° (Epoch: 23 January)

Event Time Altitude Azimuth Distance (km) Brightness Sun altitude
Rises 18:36:40 0° 212° (SSW) 2,355 0.7 -16.7°
Reaches altitude 10° 18:38:52 10° 202° (SSW) 1,496 -0.5 -17.1°
Enters shadow 18:41:51 31° 140° (SE) 756 -2.7 -17.7°
